HJ-1B

导读

HJ-1B(环境与灾害监测预报小卫星B星)是中国于2008年9月6日在太原卫星发射中心,用长征二号丙运载火箭发射的对地观测卫星,属于HJ-1环境减灾星座,运行于649公里高度的太阳同步轨道。它搭载两台30米分辨率CCD相机和红外扫描辐射计,可与HJ-1A协同实现2天全球重访,主要承担环境监测、灾害预警评估任务,能监测森林火灾、水体污染,反演地表温度,支撑生态与防灾领域遥感应用。

Basic Information
目录编号:
33321
目录名称:
HJ-1B
国际标识:
2008-041B
轨道中心:
EARTH
卫星名称:
HJ-1B
卫星全名:
--
卫星状态:
在轨 (已飞行6582 天)
发射日期:
2008-09-06 UTC
国别 :
中国 (CN)
星等 :
--
This satellite is enrolled in the Space Conjunction Data Service (SCDS) and the current flight risk assessment level is: No High Risk
Orbit Information
数据来源 国际轨道数据 AOE轨道数据
星历时间 2026-09-14T05:43:51+0800
4小时前
查看轨道信息
2026-09-11T11:00:00+0800
2天前
查看轨道信息
半长轴 6996.568km 6996.536km
偏心率 0.0034655 0.0034488
轨道倾角 97.660° 97.662°
近地点辐角 252.053° 260.342°
升交点赤经 242.265° 239.595°
平近点角 107.691° 19.665°
近地点 594.184km 594.269km
远地点 642.678km 642.529km
周期 97.071分钟 97.070分钟
每日圈数 14.834578 14.834682
Detailed Information
使用方式:
暂无
2D Orbit Map
3D Orbit Map
Orbit Altitude Analysis Chart
Orbit Inclination Analysis Chart
Orbit Comprehensive Analysis Chart
View Comprehensive Chart
Conjunction Data List
Event ID Objects TCA Miss Dist (km) Collision Risk Probability Collision Risk Index (CRI) Action
CDM_260915-180303-332106-715621
HJ-1B (33321)
2026-09-15T
18:03:25+0000
1.753 km
极远距离
2.847793E-6 低风险 0.44
CDM_260916-052203-332106-894921
HJ-1B (33321)
2026-09-16T
05:22:43+0000
2.709 km
极远距离
1.468384E-6 低风险 0.38
CDM_260915-121003-332106-738723
HJ-1B (33321)
2026-09-15T
12:10:19+0000
1.993 km
极远距离
8.14481E-7 极低风险 0.33
Miss Distance Evolution Trend with All Objects
Collision Probability Evolution Trend with All Objects